TimeEDT,TemperatureF,Dew PointF,Humidity,Sea Level PressureIn,VisibilityMPH,Wind Direction,Wind SpeedMPH,Gust SpeedMPH,PrecipitationIn,Events,Conditions,WindDirDegrees,DateUTC
12:53 AM,28.0,21.9,78,29.82,10.0,Calm,Calm,-,N/A,,Mostly Cloudy,0,2013-03-21 04:53:00
2:53 AM,28.0,23.0,81,29.81,9.0,Calm,Calm,-,N/A,,Overcast,0,2013-03-21 06:53:00
3:53 AM,26.1,23.0,88,29.79,8.0,Calm,Calm,-,N/A,,Overcast,0,2013-03-21 07:53:00
4:53 AM,25.0,21.9,88,29.78,8.0,Calm,Calm,-,N/A,,Overcast,0,2013-03-21 08:53:00
5:53 AM,25.0,21.0,85,29.78,7.0,Calm,Calm,-,N/A,,Overcast,0,2013-03-21 09:53:00
6:53 AM,26.1,23.0,88,29.78,7.0,Calm,Calm,-,N/A,,Overcast,0,2013-03-21 10:53:00
7:53 AM,28.0,21.0,75,29.79,10.0,Calm,Calm,-,N/A,,Overcast,0,2013-03-21 11:53:00
8:53 AM,28.9,18.0,64,29.78,10.0,NNE,3.5,-,N/A,,Overcast,20,2013-03-21 12:53:00
9:53 AM,30.0,18.0,61,29.77,10.0,NNE,5.8,-,N/A,,Overcast,20,2013-03-21 13:53:00
10:53 AM,32.0,16.0,52,29.75,10.0,North,5.8,-,N/A,,Overcast,10,2013-03-21 14:53:00
11:53 AM,33.1,14.0,46,29.73,10.0,Calm,Calm,-,N/A,,Overcast,0,2013-03-21 15:53:00
12:53 PM,34.0,10.0,37,29.70,10.0,North,5.8,-,N/A,,Overcast,350,2013-03-21 16:53:00
1:53 PM,36.0,12.0,37,29.68,10.0,Calm,Calm,-,N/A,,Overcast,0,2013-03-21 17:53:00
2:53 PM,37.9,14.0,38,29.65,10.0,Variable,5.8,-,N/A,,Overcast,0,2013-03-21 18:53:00
3:53 PM,37.9,12.9,36,29.63,10.0,North,6.9,-,N/A,,Overcast,10,2013-03-21 19:53:00
4:53 PM,39.0,14.0,36,29.62,10.0,NW,9.2,-,N/A,,Partly Cloudy,320,2013-03-21 20:53:00
5:53 PM,37.9,12.9,36,29.62,10.0,NW,6.9,-,N/A,,Mostly Cloudy,320,2013-03-21 21:53:00
6:53 PM,36.0,12.9,39,29.64,10.0,North,8.1,-,N/A,,Overcast,360,2013-03-21 22:53:00
7:53 PM,34.0,12.0,40,29.66,10.0,North,11.5,-,N/A,,Overcast,360,2013-03-21 23:53:00
8:53 PM,34.0,15.1,46,29.68,10.0,NNW,5.8,-,N/A,,Overcast,330,2013-03-22 00:53:00
9:53 PM,33.1,16.0,50,29.69,10.0,NW,3.5,-,N/A,,Overcast,320,2013-03-22 01:53:00
10:53 PM,32.0,12.0,44,29.70,10.0,WNW,10.4,-,N/A,,Overcast,300,2013-03-22 02:53:00
11:53 PM,28.9,12.9,51,29.71,10.0,West,3.5,-,N/A,,Clear,270,2013-03-22 03:53:00